This demonstration page uses our WeatherBlox Daily Observations layout. Learn more.

Hourly Observations for September 19, 2019

Temp ( °F °C ) Dew Point ( °F °C ) Humidity (%) Winds ( mph kmh ) Pressure ( in mb ) Visibility ( mi km ) Precip ( " mm )
12:15 am 00:15 Clear 64 18 61 16 88 88 Calm 29.88 1012 10 16.09344 0 0
12:35 am 00:35 Clear 64 17.7 61 16.1 90 90 Calm 29.88 1012 10 16.09344 0 0
12:55 am 00:55 Clear 65 18.1 62 16.4 90 90 ESE 3 6 29.88 1012 10 16.09344 0 0
1:15 am 01:15 Clear 64 18 62 16.4 90 90 SE 5 7 29.88 1012 10 16.09344 0 0
1:35 am 01:35 Clear 63 17.4 62 16.4 94 94 Calm 29.88 1012 10 16.09344 0 0
1:55 am 01:55 Clear 62 16.5 61 16 97 97 Calm 29.88 1012 10 16.09344 0 0
2:15 am 02:15 Clear 60 15.8 60 15.6 99 99 Calm 29.88 1012 10 16.09344 0 0
2:35 am 02:35 Clear 61 16 60 15.7 98 98 Calm 29.88 1012 10 16.09344 0 0
2:55 am 02:55 Clear 61 16.1 60 15.8 98 98 Calm 29.88 1012 10 16.09344 0 0
3:15 am 03:15 Clear 61 16.3 60 15.7 96 96 SSW 5 7 29.88 1012 10 16.09344 0 0
3:35 am 03:35 Clear 65 18.2 64 17.7 97 97 S 6 9 29.88 1012 10 16.09344 0 0
3:55 am 03:55 Clear 64 18 63 17.3 96 96 S 6 9 29.88 1012 10 16.09344 0 0
4:15 am 04:15 Clear 64 17.9 63 17.3 96 96 S 5 7 29.88 1012 10 16.09344 0 0
4:35 am 04:35 Clear 64 17.8 63 17.3 97 97 S 5 7 29.88 1012 10 16.09344 0 0
4:55 am 04:55 Clear 66 18.8 65 18.2 96 96 SSW 6 9 29.88 1012 10 16.09344 0 0
5:15 am 05:15 Clear 66 19.1 65 18.1 94 94 SSW 3 6 29.85 1011 10 16.09344 0 0
5:35 am 05:35 Clear 65 18.6 64 17.7 95 95 SW 5 7 29.88 1012 10 16.09344 0 0
5:55 am 05:55 Clear 67 19.3 65 18.1 93 93 SSW 7 11 29.85 1011 10 16.09344 0 0
6:15 am 06:15 Clear 67 19.5 64 18 91 91 S 5 7 29.85 1011 10 16.09344 0 0
6:35 am 06:35 Clear 65 18.5 63 17.4 93 93 Calm 29.88 1012 10 16.09344 0 0
6:55 am 06:55 Clear 62 16.5 61 16 97 97 Calm 29.88 1012 10 16.09344 0 0
7:15 am 07:15 Clear 61 16.2 61 16.1 99 99 ESE 3 6 29.88 1012 10 16.09344 0 0
7:35 am 07:35 Sunny 62 16.4 62 16.4 100 100 Calm 29.91 1013 7 11.265408 0 0
7:55 am 07:55 Sunny 60 15.6 60 15.6 100 100 Calm 29.94 1014 7 11.265408 0 0
8:15 am 08:15 Sunny 62 16.5 62 16.5 100 100 Calm 29.91 1013 7 11.265408 0 0
8:35 am 08:35 Sunny 65 18.2 64 18 99 99 Calm 29.91 1013 10 16.09344 0 0
8:55 am 08:55 Sunny 67 19.5 65 18.6 95 95 Calm 29.88 1012 10 16.09344 0 0
9:15 am 09:15 Sunny 68 20.1 66 18.9 93 93 ESE 3 6 29.88 1012 10 16.09344 0 0
9:35 am 09:35 Sunny 70 21.3 67 19.5 90 90 SSE 5 7 29.88 1012 10 16.09344 0 0
9:55 am 09:55 Sunny 73 22.5 68 20.2 87 87 SSE 5 7 29.88 1012 10 16.09344 0 0
10:15 am 10:15 Sunny 76 24.4 68 20 77 77 S 7 11 29.85 1011 10 16.09344 0 0
10:35 am 10:35 Sunny 78 25.5 68 20.1 72 72 S 10 17 29.85 1011 10 16.09344 0 0
10:55 am 10:55 Sunny 79 26 68 20.1 70 70 S 8 13 29.85 1011 10 16.09344 0 0
11:15 am 11:15 Sunny 80 26.8 68 20 66 66 S 9 15 29.83 1010 10 16.09344 0 0
11:35 am 11:35 Sunny 82 27.5 68 20.1 64 64 SSE 9 15 29.83 1010 10 16.09344 0 0
11:55 am 11:55 Sunny 82 28 68 20.2 63 63 SSE 12 19 29.83 1010 10 16.09344 0 0
12:15 pm 12:15 Sunny 84 28.7 68 20.2 60 60 SSE 10 17 29.83 1010 10 16.09344 0 0
12:35 pm 12:35 Sunny 85 29.4 68 20.1 57 57 SSE 14 22 29.8 1009 10 16.09344 0 0
12:55 pm 12:55 Sunny 85 29.2 67 19.7 57 57 S 16 26 29.8 1009 10 16.09344 0 0
1:15 pm 13:15 Sunny 86 29.8 68 19.9 55 55 SSE 14 22 29.8 1009 10 16.09344 0 0
1:35 pm 13:35 Sunny 88 31 68 20.2 53 53 SSE 18 30 29.77 1008 10 16.09344 0 0
1:55 pm 13:55 Partly Cloudy 89 31.7 68 19.9 50 50 SSE 16 26 29.77 1008 10 16.09344 0 0
2:15 pm 14:15 Partly Cloudy 89 31.8 67 19.7 49 49 SSE 18 30 29.74 1007 10 16.09344 0 0
2:35 pm 14:35 Sunny 88 31.2 67 19.2 49 49 S 18 30 29.74 1007 10 16.09344 0 0
2:55 pm 14:55 Sunny 91 32.8 67 19.7 46 46 SSE 17 28 29.74 1007 10 16.09344 0 0
3:15 pm 15:15 Sunny 91 32.7 67 19.7 46 46 SSE 21 33 29.74 1007 10 16.09344 0 0
3:35 pm 15:35 Sunny 91 32.5 67 19.4 46 46 SSE 21 33 29.71 1006 10 16.09344 0 0
3:55 pm 15:55 Sunny 89 31.8 67 19.7 49 49 S 15 24 29.71 1006 10 16.09344 0 0
4:15 pm 16:15 Sunny 88 31.1 67 19.7 51 51 SSE 14 22 29.71 1006 10 16.09344 0 0
4:35 pm 16:35 Sunny 88 31.2 67 19.5 50 50 S 14 22 29.71 1006 10 16.09344 0 0
4:55 pm 16:55 Sunny 89 31.9 68 20 49 49 SSE 15 24 29.71 1006 10 16.09344 0 0
5:15 pm 17:15 Sunny 89 31.9 67 19.5 48 48 SSE 15 24 29.68 1005 10 16.09344 0 0
5:35 pm 17:35 Sunny 86 30.1 67 19.7 54 54 SSE 13 20 29.71 1006 10 16.09344 0 0
5:55 pm 17:55 Sunny 86 29.9 67 19.4 53 53 SSE 12 19 29.71 1006 10 16.09344 0 0
6:15 pm 18:15 Sunny 85 29.5 66 19 53 53 SSE 10 17 29.71 1006 10 16.09344 0 0
6:35 pm 18:35 Sunny 84 29 67 19.3 56 56 SSE 10 17 29.74 1007 10 16.09344 0 0
6:55 pm 18:55 Sunny 83 28.6 66 19 56 56 SSE 12 19 29.74 1007 10 16.09344 0 0
7:15 pm 19:15 Sunny 82 28 66 19 58 58 SSE 10 17 29.74 1007 10 16.09344 0 0
7:35 pm 19:35 Sunny 82 27.7 65 18.6 58 58 SSE 9 15 29.77 1008 10 16.09344 0 0
7:55 pm 19:55 Clear 80 26.8 65 18.6 61 61 SSE 9 15 29.77 1008 10 16.09344 0 0
8:15 pm 20:15 Clear 80 26.4 66 18.8 63 63 SSE 9 15 29.77 1008 10 16.09344 0 0
8:35 pm 20:35 Clear 78 25.6 66 18.7 66 66 SSE 10 17 29.8 1009 10 16.09344 0 0
8:55 pm 20:55 Clear 78 25.3 65 18.6 67 67 SSE 12 19 29.8 1009 10 16.09344 0 0
9:15 pm 21:15 Clear 77 24.9 65 18.6 68 68 SSE 13 20 29.8 1009 10 16.09344 0 0
9:35 pm 21:35 Clear 76 24.5 66 18.7 70 70 SSE 13 20 29.8 1009 10 16.09344 0 0
9:55 pm 21:55 Clear 77 24.9 66 18.7 69 69 SSE 13 20 29.83 1010 10 16.09344 0 0
10:15 pm 22:15 Clear 77 25 65 18.6 68 68 SSE 12 19 29.83 1010 10 16.09344 0 0
10:35 pm 22:35 Clear 76 24.7 65 18.6 69 69 SSE 13 20 29.83 1010 10 16.09344 0 0
10:55 pm 22:55 Clear 76 24.6 66 18.7 70 70 SSE 12 19 29.83 1010 10 16.09344 0 0
11:15 pm 23:15 Clear 76 24.5 66 18.9 71 71 S 10 17 29.83 1010 10 16.09344 0 0
11:35 pm 23:35 Clear 75 24 66 19 74 74 SSE 10 17 29.83 1010 10 16.09344 0 0
11:55 pm 23:55 Clear 75 24 66 19.1 74 74 SSE 9 15 29.83 1010 10 16.09344 0 0

Powered by AerisWeather